Temp_Advection
nan nan nan nan nan nan nan nan nan nan nan nan nan nan nan nan nan nan nan nan nan nan nan nan nan nan nan nan nan nan nan nan nan nan nan nan nan nan nan nan nan nan
nan 0 0 -0 -0 -0 -0 -0 -0 -0 -0 0 0 0 -0 -0 0 0 0 0 0 0 -0 -0 -0 -0 -0 -0 -0 -0 0 0 0 -0 -0 -0 -0 -0 0 0 0 nan
nan 0 -0 -0 -0 -0 -0 0 0 0 0 0 0 -0 -0 -0 -0 0 0 0 -0 -0 -0 -0 -0 0 -0 -0 -0 -0 0 0 0 -0 -0 -0 -0 -0 0 0 0 nan
nan -0 -0 -0 -0 0 0 0 0 0 0 0 0 0 0 0 0 -0 -0 -0 -0 -0 -0 -0 0 0 -0 -0 0 -0 0 0 0 -0 -0 0 -0 0 0 0 0 nan
nan -0 -0 -0 0 0 0 -0 0 -0 -0 0 0 0 0 0 -0 -0 -0 -0 -0 -0 -0 -0 -0 -0 -0 -0 -0 -0 -0 0 0 -0 -0 0 -0 -0 0 0 0 nan
nan -0 0 0 0 0 0 0 0 -0 -0 0 0 -0 -0 -0 -0 -0 -0 -0 -0 -0 -0 -0 -0 -0 -0 -0 -0 0 -0 0 0 -0 -0 0 0 0 0 0 0 nan
nan 0 0 0 0 0 0 0 0 -0 0 0 -0 -0 -0 -0 -0 -0 -0 0 0 -0 -0 0 0 0 -0 -0 0 0 0 0 0 0 0 0 0 -0 -0 0 0 nan
nan 0 0 0 -0 -0 0 0 0 -0 0 0 -0 -0 -0 -0 -0 -0 0 0 0 0 0 0 0 0 0 -0 0 0 0 -0 0 0 0 0 -0 -0 0 0 0 nan
nan 0 0 0 0 0 0 0 0 0 0 -0 -0 0 0 -0 -0 0 0 0 0 0 0 0 0 0 -0 -0 -0 0 -0 0 0 -0 0 0 0 0 0 -0 -0 nan
nan 0 0 0 0 0 0 0 0 0 0 -0 0 0 -0 -0 -0 -0 0 0 -0 0 0 0 0 0 -0 -0 -0 -0 -0 0 0 -0 -0 -0 0 0 0 -0 0 nan
nan 0 0 0 0 0 0 0 -0 -0 -0 -0 0 -0 -0 -0 -0 0 0 -0 -0 -0 -0 -0 0 0 -0 -0 -0 -0 -0 0 0 -0 -0 -0 0 0 0 -0 0 nan
nan 0 0 0 0 0 0 -0 -0 -0 -0 -0 -0 -0 -0 -0 -0 -0 -0 -0 -0 -0 -0 -0 0 0 0 0 0 -0 0 0 0 0 0 0 0 -0 -0 -0 -0 nan
nan -0 -0 0 0 0 0 -0 -0 -0 -0 -0 -0 -0 -0 -0 -0 0 -0 -0 -0 -0 -0 -0 0 0 0 0 0 0 0 0 0 0 0 0 -0 -0 -0 0 -0 nan
nan 0 0 0 0 0 0 -0 -0 -0 -0 -0 -0 -0 -0 -0 -0 -0 -0 -0 -0 -0 -0 0 0 0 0 -0 -0 0 0 0 0 0 0 -0 -0 -0 0 0 -0 nan
nan 0 0 0 0 0 -0 -0 -0 -0 -0 -0 -0 -0 -0 -0 -0 -0 -0 -0 -0 -0 0 0 0 0 0 -0 0 0 0 0 0 0 0 0 -0 -0 -0 -0 -0 nan
nan 0 0 0 -0 -0 -0 -0 -0 -0 -0 -0 -0 0 0 -0 -0 -0 -0 -0 -0 0 0 0 0 0 0 0 0 0 0 0 0 0 0 0 -0 -0 -0 -0 -0 nan
nan -0 -0 -0 -0 -0 -0 -0 -0 -0 -0 -0 -0 -0 0 0 -0 -0 -0 0 0 0 0 0 0 0 -0 -0 0 0 -0 -0 0 0 0 0 -0 -0 -0 -0 -0 nan
nan 0 0 0 0 0 -0 0 0 -0 -0 -0 -0 -0 0 0 -0 -0 0 0 0 0 0 0 0 -0 -0 -0 0 0 0 -0 0 0 0 0 -0 -0 -0 -0 -0 nan
nan 0 0 0 0 0 0 0 0 0 0 -0 -0 0 0 0 0 0 0 0 0 0 0 0 0 -0 -0 -0 0 0 0 -0 0 0 0 0 -0 -0 -0 -0 0 nan
nan 0 0 -0 0 0 0 0 0 0 0 0 0 0 0 1 0 0 0 0 0 0 0 0 0 0 0 0 0 0 0 0 0 0 0 0 0 -0 -0 -0 -0 nan
nan 0 0 0 0 0 0 1 1 1 0 0 0 0 1 1 0 -0 0 0 0 0 0 0 1 1 1 0 -0 -0 -0 0 0 0 0 1 0 0 -0 -0 -0 nan
nan 1 0 0 1 1 1 1 1 1 0 0 0 0 1 0 -0 -0 -0 0 0 0 1 1 1 0 -0 0 0 0 -0 -0 -0 0 0 0 0 0 -0 -0 -0 nan
nan 0 0 0 0 0 1 1 1 0 -0 -0 0 0 0 0 0 0 0 0 -0 -0 0 1 1 0 -0 -0 1 1 0 -0 -1 -0 0 0 0 0 0 0 0 nan
nan 0 0 1 1 1 1 1 1 0 -0 -0 0 0 0 1 1 1 -0 -1 -0 0 0 1 1 0 -0 -0 1 1 1 0 -0 -0 0 -0 0 0 0 0 0 nan
nan 0 0 1 1 1 1 0 0 0 -0 0 0 1 1 1 1 0 -1 -1 0 1 1 0 0 -0 -0 -0 0 1 1 1 -0 -0 -0 -0 0 0 0 0 0 nan
nan nan nan nan nan nan nan nan nan nan nan nan nan nan nan nan nan nan nan nan nan nan nan nan nan nan nan nan nan nan nan nan nan nan nan nan nan nan nan nan nan nan
Wind_Speed
19 18 17 17 16 15 14 13 13 12 10 10 10 9 9 10 9 9 11 9 8 8 7 7 9 9 8 8 8 7 7 6 5 6 7 7 8 8 8 8 7 6
19 17 16 16 17 16 14 13 12 12 11 10 10 10 10 10 9 9 10 8 7 7 7 8 8 9 8 8 9 8 8 7 6 7 7 7 9 9 9 9 7 6
19 18 16 16 16 15 14 13 13 12 11 11 11 10 10 10 9 8 8 8 8 8 8 8 8 8 8 8 8 8 8 8 8 9 8 7 8 9 9 9 8 6
20 19 18 16 15 15 14 14 14 13 12 12 10 10 10 10 9 8 8 8 8 8 8 8 8 8 8 8 8 8 9 9 8 9 9 8 7 8 8 9 9 7
19 19 18 17 16 15 16 16 15 14 13 12 10 10 10 9 8 8 8 8 8 8 8 9 8 8 8 8 8 8 8 8 8 9 9 7 6 6 7 9 10 9
19 19 19 19 18 17 17 16 14 14 13 11 11 11 9 8 7 8 9 9 8 7 8 8 7 7 8 7 8 8 8 8 8 9 9 8 6 6 7 9 11 11
19 19 19 19 19 18 18 16 14 13 12 11 11 10 8 7 7 8 8 8 8 7 7 7 6 6 7 7 7 8 8 8 8 8 8 7 7 7 7 9 12 12
20 19 19 19 19 19 18 16 14 13 12 12 12 9 7 6 6 7 7 7 7 7 7 7 5 5 6 7 7 7 7 7 7 7 7 7 7 6 6 7 10 11
21 20 20 20 19 18 17 14 13 13 13 12 12 10 8 7 7 7 6 6 7 6 6 6 5 5 6 7 7 7 8 8 7 8 7 7 7 6 6 7 8 9
21 20 20 20 20 18 16 14 12 13 14 13 12 11 10 9 8 8 7 7 7 6 6 6 6 6 7 8 8 8 8 8 9 9 8 8 8 7 7 7 7 7
20 19 19 20 20 19 17 14 13 13 14 14 13 12 12 11 10 10 9 9 8 8 8 8 8 9 10 10 10 9 8 8 9 9 9 8 8 8 8 8 8 8
19 18 17 18 19 20 18 16 14 14 13 13 14 13 13 13 13 12 12 11 9 9 10 9 10 11 11 11 11 11 10 10 9 9 9 9 10 10 11 10 10 10
18 17 16 16 17 19 20 17 14 14 14 15 16 15 14 14 14 14 14 12 11 11 11 11 11 11 11 12 12 12 12 12 11 10 10 11 12 12 12 11 11 12
18 18 17 16 16 17 19 18 16 17 18 18 20 20 19 17 15 15 15 15 14 14 14 13 13 12 12 12 13 13 13 13 13 12 12 14 13 11 11 12 12 12
21 21 19 18 18 18 19 20 21 21 21 20 20 19 20 21 20 18 18 17 17 16 16 16 16 15 13 12 12 13 14 14 13 12 13 15 14 12 11 11 10 11
23 23 21 20 20 19 20 22 24 24 23 23 21 18 17 19 21 21 20 19 18 17 17 18 19 18 15 13 13 13 14 14 14 12 12 14 15 14 12 11 10 11
23 23 22 21 21 20 19 21 24 25 26 26 25 23 19 17 18 20 22 21 20 20 19 19 20 19 18 16 15 15 15 15 14 13 12 13 16 15 12 12 12 12
23 23 24 23 22 22 21 22 23 24 25 26 26 27 25 22 19 19 20 20 20 20 20 20 20 20 18 17 16 15 15 15 16 14 14 15 16 15 12 13 13 12
23 24 25 25 25 24 24 24 24 25 25 25 25 25 27 27 26 24 22 21 21 20 20 20 20 20 19 18 17 15 15 17 18 17 17 18 17 16 14 14 14 14
23 25 25 25 26 27 26 26 26 26 27 26 25 24 24 25 26 26 25 24 24 23 23 23 23 23 21 19 17 16 16 17 19 18 19 20 20 19 17 17 16 16
23 24 24 25 26 27 28 27 27 27 27 27 27 26 25 25 24 25 25 26 26 26 26 26 25 24 21 20 19 18 17 17 18 19 19 21 22 21 20 19 18 18
25 25 24 24 24 24 25 26 26 26 26 26 26 26 26 26 26 27 27 28 28 28 27 27 26 25 24 23 22 20 18 19 20 20 21 22 22 23 22 21 21 20
24 24 23 23 23 23 24 25 25 24 25 25 25 26 27 28 29 29 30 30 30 31 30 30 30 30 30 29 27 23 21 21 22 22 23 23 22 22 23 22 22 21
21 22 22 23 24 24 25 25 25 24 25 25 25 25 26 27 28 28 28 29 30 32 32 32 33 33 33 34 34 30 27 26 25 24 24 23 23 23 22 22 21 20
16 17 18 19 21 21 22 22 23 23 24 24 24 24 24 25 25 25 24 25 27 30 31 31 31 31 30 32 34 34 33 31 28 26 25 24 24 23 21 20 20 19
8 9 11 12 14 16 17 18 19 20 21 21 21 20 18 18 17 15 16 19 23 27 28 28 29 29 28 29 30 31 32 32 30 28 27 26 24 23 20 18 18 19
Wind_Direction
199 197 200 202 201 202 204 204 204 206 209 207 206 206 204 208 210 205 203 201 201 209 219 226 223 220 222 227 234 234 222 220 234 234 227 221 219 219 216 216 227 246
201 197 198 203 204 204 201 201 202 203 205 205 205 205 204 207 208 202 203 204 204 212 220 224 221 217 220 228 232 230 224 227 240 243 242 235 225 221 217 213 222 246
202 199 200 203 202 201 198 196 198 200 200 199 202 206 205 205 207 204 203 206 207 210 217 220 217 218 223 227 230 232 229 231 238 241 245 244 238 231 223 218 220 237
202 202 202 202 201 200 198 196 196 198 199 197 198 201 204 207 212 211 209 212 214 213 217 217 212 217 224 222 227 235 232 232 236 240 244 245 245 241 230 225 224 231
203 202 201 201 199 196 198 199 197 195 196 198 200 199 203 215 221 219 220 219 218 216 217 221 217 219 226 223 224 229 229 230 236 242 245 243 245 241 227 226 228 234
203 201 198 199 199 198 200 201 198 197 196 198 206 207 209 220 221 217 219 219 220 219 217 223 224 224 231 233 228 229 231 230 233 242 245 242 243 242 232 229 232 236
203 201 198 200 200 201 204 204 201 202 201 201 208 212 211 216 215 212 214 214 217 222 221 225 229 229 237 241 235 232 235 237 239 246 248 246 245 245 242 236 235 238
205 202 200 200 201 203 206 208 210 210 209 207 205 203 203 210 215 216 217 216 219 224 223 222 226 234 240 244 242 238 240 245 248 248 246 245 243 243 245 245 244 247
204 204 203 201 200 201 201 205 212 214 212 209 202 200 208 216 222 225 225 228 229 227 223 221 228 247 252 250 248 244 244 246 250 253 251 242 241 248 257 253 249 254
202 204 206 204 201 199 198 202 211 215 212 210 208 211 220 223 225 230 231 234 232 230 238 242 244 255 262 261 256 250 249 249 251 257 255 246 245 257 264 255 246 251
202 204 208 209 207 204 202 206 212 213 211 213 216 220 225 226 226 232 235 236 235 237 247 255 257 259 261 263 261 256 256 254 249 253 258 257 256 257 257 255 251 252
206 210 213 212 211 209 208 209 211 210 210 216 223 226 229 231 229 232 235 237 243 248 250 254 259 261 261 263 263 261 260 255 246 247 256 261 256 249 248 252 254 257
208 214 217 214 212 210 209 210 211 212 214 222 229 231 233 234 232 233 236 240 246 251 252 255 257 259 260 259 258 259 258 254 247 245 252 258 254 250 254 259 259 261
205 212 217 216 213 211 208 207 211 218 223 228 233 234 234 234 232 232 237 242 247 251 255 256 255 253 254 255 254 253 252 250 248 247 252 260 260 260 267 268 263 263
206 210 213 216 217 216 213 210 214 223 228 229 231 234 235 235 233 233 236 241 244 247 250 251 249 247 249 254 255 252 250 250 250 249 253 262 267 269 272 270 268 268
207 207 213 218 220 222 220 214 215 222 228 229 229 229 229 231 233 235 237 238 238 239 241 243 246 246 248 252 253 252 251 248 247 248 249 257 263 266 270 271 271 272
209 211 217 221 221 222 221 216 216 221 225 228 230 231 231 229 230 232 235 239 241 242 241 241 243 247 251 254 253 253 251 242 238 239 238 246 256 259 263 270 270 270
217 219 221 222 221 221 220 219 221 225 228 230 231 234 236 235 234 232 232 235 239 241 242 240 241 246 251 255 253 252 250 241 234 234 232 237 248 254 262 272 273 272
222 225 224 224 224 224 223 223 224 227 231 235 235 235 237 238 239 239 238 239 239 239 241 241 243 247 250 253 253 252 251 245 238 237 235 236 243 251 260 269 271 270
227 230 229 228 229 229 228 228 228 229 231 235 237 238 240 241 242 243 244 246 246 246 247 247 248 251 251 251 251 252 253 249 243 239 237 238 245 250 257 264 269 271
232 232 230 230 231 231 232 233 234 235 236 238 241 242 243 245 247 249 250 251 252 252 252 252 252 252 252 252 254 254 252 250 248 244 240 240 244 248 254 262 267 271
227 227 226 228 230 232 236 239 239 240 242 244 245 245 245 246 249 251 253 255 255 255 255 254 253 251 250 253 256 257 254 252 252 250 244 241 242 246 252 258 263 268
229 230 230 231 232 235 239 242 244 244 245 247 249 249 249 250 251 252 253 254 256 257 257 256 254 252 250 250 252 254 255 253 249 247 245 242 242 245 250 256 262 267
236 238 238 237 238 238 239 242 244 244 246 248 249 250 251 252 252 252 253 255 257 259 259 258 257 256 253 250 250 249 250 250 246 243 244 245 245 247 250 255 262 267
239 242 243 242 242 243 244 245 246 247 248 249 250 252 253 253 254 255 256 257 258 257 257 256 257 258 255 253 252 249 247 248 247 243 243 244 246 247 249 253 260 264
240 243 246 246 246 247 246 245 246 247 248 249 251 255 258 262 265 262 256 255 255 254 254 254 255 256 254 252 251 248 245 244 243 241 240 239 240 242 245 250 256 260
Height
1590 1591 1591 1592 1593 1594 1595 1595 1596 1596 1597 1597 1598 1598 1599 1599 1599 1600 1600 1600 1600 1601 1601 1601 1602 1602 1602 1602 1602 1603 1603 1603 1603 1604 1604 1604 1604 1604 1605 1605 1605 1605
1589 1590 1591 1591 1592 1593 1594 1594 1595 1596 1596 1597 1597 1598 1598 1599 1599 1600 1600 1600 1600 1600 1601 1601 1601 1601 1601 1602 1602 1602 1602 1603 1603 1603 1603 1604 1604 1604 1604 1604 1604 1604
1587 1589 1590 1591 1591 1592 1593 1594 1595 1595 1596 1596 1597 1597 1598 1598 1599 1599 1599 1599 1600 1600 1600 1600 1600 1601 1601 1601 1602 1602 1602 1602 1602 1603 1603 1603 1603 1603 1603 1604 1604 1604
1586 1587 1588 1589 1590 1591 1592 1593 1594 1594 1595 1596 1596 1597 1598 1598 1598 1598 1599 1599 1599 1599 1599 1600 1600 1600 1600 1601 1601 1601 1601 1602 1602 1602 1602 1602 1603 1603 1603 1603 1603 1603
1585 1586 1587 1588 1589 1590 1591 1592 1593 1593 1594 1595 1596 1597 1597 1597 1598 1598 1598 1598 1598 1599 1599 1599 1600 1600 1600 1600 1600 1601 1601 1601 1601 1601 1601 1602 1602 1602 1602 1602 1602 1603
1584 1585 1586 1587 1588 1589 1590 1591 1592 1592 1593 1594 1595 1596 1596 1596 1597 1597 1597 1598 1598 1598 1598 1599 1599 1599 1600 1600 1600 1600 1600 1600 1601 1601 1601 1601 1601 1601 1601 1602 1602 1602
1582 1583 1585 1586 1587 1588 1589 1590 1590 1591 1592 1593 1594 1595 1595 1595 1596 1596 1597 1597 1597 1597 1598 1598 1599 1599 1599 1599 1599 1599 1599 1600 1600 1600 1600 1600 1600 1600 1601 1601 1601 1601
1581 1582 1583 1585 1586 1587 1588 1588 1589 1590 1591 1592 1593 1593 1594 1594 1595 1596 1596 1596 1596 1597 1597 1598 1598 1598 1598 1598 1598 1599 1599 1599 1599 1599 1599 1599 1599 1600 1600 1600 1600 1600
1580 1581 1582 1584 1584 1586 1587 1587 1588 1589 1590 1591 1592 1592 1593 1593 1594 1595 1595 1595 1596 1596 1597 1597 1598 1598 1598 1598 1598 1598 1598 1598 1598 1598 1599 1599 1599 1599 1599 1599 1599 1599
1578 1580 1581 1583 1584 1585 1586 1587 1588 1589 1590 1590 1591 1591 1592 1592 1593 1594 1594 1594 1595 1595 1596 1596 1596 1597 1597 1597 1597 1597 1597 1597 1597 1598 1598 1598 1598 1598 1598 1598 1598 1597
1577 1579 1580 1581 1583 1584 1585 1586 1587 1588 1589 1590 1590 1590 1591 1591 1592 1592 1593 1593 1594 1594 1594 1595 1595 1595 1596 1596 1596 1596 1596 1596 1596 1597 1597 1597 1597 1597 1597 1596 1596 1596
1576 1578 1579 1580 1582 1583 1584 1585 1586 1587 1588 1589 1590 1590 1590 1590 1591 1591 1592 1592 1592 1593 1593 1593 1594 1594 1594 1594 1595 1595 1595 1595 1595 1595 1596 1596 1596 1596 1595 1595 1595 1595
1575 1577 1578 1580 1581 1582 1583 1584 1585 1586 1587 1587 1588 1588 1589 1589 1589 1590 1590 1591 1591 1591 1592 1592 1592 1593 1593 1593 1593 1593 1593 1594 1594 1594 1594 1594 1594 1595 1595 1595 1595 1594
1574 1576 1577 1578 1580 1580 1582 1583 1584 1585 1585 1586 1586 1586 1587 1588 1588 1588 1589 1589 1590 1590 1591 1591 1591 1591 1591 1591 1591 1592 1592 1592 1592 1593 1593 1593 1593 1593 1594 1594 1594 1593
1573 1575 1576 1577 1578 1579 1580 1581 1582 1583 1583 1584 1585 1585 1585 1586 1586 1587 1587 1588 1589 1589 1590 1590 1589 1590 1590 1590 1590 1590 1590 1591 1591 1591 1592 1591 1591 1592 1592 1592 1592 1592
1572 1574 1575 1576 1577 1578 1579 1580 1581 1582 1582 1583 1583 1584 1584 1584 1584 1585 1586 1586 1587 1587 1588 1588 1588 1589 1589 1589 1589 1589 1589 1589 1589 1590 1590 1590 1590 1590 1591 1591 1590 1590
1572 1573 1574 1575 1576 1576 1577 1578 1579 1580 1580 1581 1581 1582 1583 1583 1583 1583 1584 1585 1585 1585 1586 1586 1587 1587 1587 1588 1588 1588 1588 1588 1588 1588 1589 1588 1588 1588 1589 1589 1589 1589
1571 1572 1573 1574 1574 1575 1576 1576 1577 1578 1578 1579 1579 1580 1581 1581 1582 1582 1582 1583 1583 1583 1584 1584 1585 1585 1585 1586 1586 1586 1586 1586 1586 1587 1587 1587 1586 1586 1587 1587 1587 1588
1570 1571 1572 1573 1573 1573 1574 1574 1575 1576 1576 1577 1577 1578 1579 1579 1580 1580 1580 1581 1581 1581 1582 1582 1583 1583 1583 1583 1584 1584 1584 1585 1585 1585 1585 1585 1585 1585 1585 1585 1586 1586
1568 1569 1570 1571 1571 1571 1572 1572 1573 1573 1573 1574 1575 1576 1576 1577 1577 1577 1578 1578 1578 1579 1579 1580 1580 1580 1580 1581 1581 1582 1582 1582 1582 1583 1583 1583 1583 1583 1583 1584 1584 1584
1566 1567 1568 1568 1568 1569 1569 1569 1570 1570 1571 1572 1572 1573 1574 1574 1575 1575 1575 1575 1575 1576 1577 1577 1578 1578 1578 1578 1579 1579 1580 1580 1580 1581 1581 1581 1581 1582 1582 1582 1582 1582
1564 1565 1565 1566 1566 1566 1566 1566 1566 1567 1568 1569 1569 1571 1572 1572 1572 1573 1573 1573 1573 1573 1574 1574 1575 1575 1576 1576 1576 1577 1577 1578 1578 1578 1578 1578 1579 1579 1579 1580 1580 1580
1561 1562 1562 1563 1563 1564 1564 1564 1564 1565 1566 1566 1566 1567 1568 1568 1569 1570 1570 1570 1570 1570 1571 1571 1571 1571 1572 1573 1574 1574 1575 1575 1575 1576 1576 1576 1576 1576 1577 1577 1577 1578
1559 1559 1559 1560 1561 1561 1562 1562 1562 1562 1563 1563 1563 1563 1564 1564 1565 1565 1567 1568 1568 1567 1567 1567 1567 1567 1568 1569 1570 1571 1571 1571 1571 1572 1573 1574 1573 1573 1574 1574 1575 1575
1557 1557 1557 1558 1559 1559 1559 1559 1559 1560 1560 1560 1560 1559 1559 1560 1560 1561 1564 1565 1564 1563 1563 1563 1563 1562 1564 1565 1565 1566 1567 1566 1567 1569 1569 1570 1571 1571 1571 1571 1571 1572
1556 1556 1556 1556 1557 1557 1557 1557 1557 1557 1557 1557 1556 1556 1556 1556 1557 1558 1561 1561 1560 1559 1559 1560 1559 1559 1559 1560 1560 1561 1562 1562 1563 1564 1565 1566 1567 1567 1568 1568 1568 1569